Epoch,demod_status_bits,ebno,lock_status,signal_level,viterbi_ber
1664474968,,13.3,0x00c000,-38.6,
1664474969,C;S;V;F,13.2,0x00c000,-38.5,4.54e-7
1664474970,C;S;V;F,,0x00c000,-38.4,1.51e-7
1664474971,C;S;V;F,13.6,0x00c000,-38.7,0.00e-0
1664474972,C;S;V;F,13.6,0x00c000,,0.00e-0
1664474973,C;S;V;F,13.3,0x00c000,-38.8,0.00e-0
1664474974,C;S;V;F,13.2,0x00c000,-38.5,1.51e-7
1664474975,C;S;V;F,14.5,0x00c000,-37.5,0.00e-0
1664474976,C;S;V;F,14.5,0x00c000,-38.7,0.00e-0
1664474977,C;S;V;F,13.4,0x00c000,-38.6,0.00e-0
1664474978,C;S;V;F,13.5,0x00c000,-38.8,0.00e-0
1664474979,C;S;V;F,13.2,0x00c000,-38.6,1.51e-7
1664474980,C;S;V;F,13.6,0x00c000,-38.1,
1664474981,,13.9,0x00c000,-38.0,0.00e-0
1664474982,C;S;V;F,14.0,0x00c000,-38.2,0.00e-0
1664474983,C;S;V;F,,0x00c000,-37.8,0.00e-0
1664474984,C;S;V;F,14.4,0x00c000,-37.9,0.00e-0
1664474985,C;S;V;F,14.1,0x00c000,-38.3,0.00e-0
1664474986,C;S;V;F,14.0,0x00c000,,0.00e-0
1664474987,C;S;V;F,14.2,0x00c000,-37.8,0.00e-0
1664474988,C;S;V;F,14.2,0x00c000,-37.9,0.00e-0
1664474989,C;S;V;F,14.6,0x00c000,-37.5,0.00e-0
1664474990,C;S;V;F,14.4,0x00c000,-37.7,0.00e-0
1664474991,C;S;V;F,14.2,0x00c000,-37.6,0.00e-0
1664474992,C;S;V;F,14.3,0x00c000,-37.9,0.00e-0
1664474993,C;S;V;F,14.4,0x00c000,-37.2,0.00e-0
1664474994,C;S;V;F,15.1,0x00c000,-36.9,0.00e-0
1664474995,C;S;V;F,15.1,0x00c000,-37.0,
1664474996,,14.3,0x00c000,-38.0,0.00e-0
1664474997,C;S;V;F,14.2,0x00c000,-37.7,0.00e-0
1664474998,C;S;V;F,14.9,0x00c000,-37.2,0.00e-0
1664474999,C;S;V;F,,0x00c000,-37.2,0.00e-0
1664475000,C;S;V;F,14.6,0x00c000,-36.8,0.00e-0
1664475001,C;S;V;F,15.0,0x00c000,,0.00e-0
1664475002,C;S;V;F,14.9,0x00c000,-37.1,0.00e-0
1664475003,C;S;V;F,15.2,0x00c000,-36.7,0.00e-0
1664475004,C;S;V;F,15.3,0x00c000,-36.8,0.00e-0
1664475005,C;S;V;F,15.2,0x00c000,-36.6,0.00e-0
1664475006,C;S;V;F,15.0,0x00c000,-37.1,0.00e-0
1664475009,C;S;V;F,15.2,0x00c000,-36.8,0.00e-0
1664475010,C;S;V;F,15.3,0x00c000,-36.6,0.00e-0
1664475011,C;S;V;F,15.0,0x00c000,-37.0,0.00e-0
1664475012,C;S;V;F,15.0,0x00c000,-37.1,0.00e-0
1664475013,C;S;V;F,15.7,0x00c000,-36.4,0.00e-0
1664475014,C;S;V;F,15.8,0x00c000,-36.3,0.00e-0
1664475015,C;S;V;F,15.8,0x00c000,-36.4,0.00e-0
1664475016,C;S;V;F,15.5,0x00c000,-36.5,
1664475017,,15.7,0x00c000,-36.3,0.00e-0
1664475018,C;S;V;F,15.6,0x00c000,-36.4,0.00e-0
1664475019,C;S;V;F,15.6,0x00c000,-36.3,0.00e-0
1664475020,C;S;V;F,15.7,0x00c000,-36.5,0.00e-0
1664475021,C;S;V;F,,0x00c000,,0.00e-0
1664475022,C;S;V;F,15.5,0x00c000,-36.4,0.00e-0
1664475023,C;S;V;F,15.3,0x00c000,-36.8,0.00e-0
1664475024,C;S;V;F,15.5,0x00c000,-36.5,0.00e-0
1664475025,C;S;V;F,15.5,0x00c000,-36.5,0.00e-0
1664475026,C;S;V;F,15.9,0x00c000,-36.4,0.00e-0
1664475027,C;S;V;F,16.0,0x00c000,-36.3,0.00e-0
1664475028,C;S;V;F,15.6,0x00c000,-36.5,
1664475029,,15.7,0x00c000,-36.4,0.00e-0
1664475030,C;S;V;F,15.7,0x00c000,-36.4,0.00e-0
1664475031,C;S;V;F,15.6,0x00c000,-36.4,0.00e-0
1664475032,C;S;V;F,15.9,0x00c000,-36.2,0.00e-0
1664475033,C;S;V;F,,0x00c000,-36.3,0.00e-0
1664475034,C;S;V;F,15.8,0x00c000,,0.00e-0
1664475035,,15.4,0x00c000,-36.7,
1664475036,C;S;V;F,15.9,0x00c000,-36.0,0.00e-0
1664475037,C;S;V;F,16.2,0x00c000,-35.9,0.00e-0
1664475038,C;S;V;F,,0x00c000,-36.1,0.00e-0
1664475039,C;S;V;F,16.2,0x00c000,-36.0,0.00e-0
1664475040,C;S;V;F,16.0,0x00c000,,0.00e-0
1664475041,C;S;V;F,16.5,0x00c000,-35.8,0.00e-0
1664475042,C;S;V;F,16.4,0x00c000,-35.6,0.00e-0
1664475043,C;S;V;F,16.5,0x00c000,-35.6,0.00e-0
1664475044,C;S;V;F,16.6,0x00c000,-35.3,0.00e-0
1664475045,C;S;V;F,16.4,0x00c000,-35.8,0.00e-0
1664475046,C;S;V;F,16.5,0x00c000,-35.6,0.00e-0
1664475047,,16.3,0x00c000,-36.3,
1664475048,C;S;V;F,15.9,0x00c000,-36.2,0.00e-0
1664475049,C;S;V;F,16.3,0x00c000,-35.8,0.00e-0
1664475050,C;S;V;F,,0x00c000,-35.7,0.00e-0
1664475051,C;S;V;F,16.4,0x00c000,,0.00e-0
1664475052,C;S;V;F,16.6,0x00c000,-35.4,0.00e-0
1664475053,C;S;V;F,16.5,0x00c000,-35.8,0.00e-0
1664475054,C;S;V;F,16.4,0x00c000,-35.9,0.00e-0
1664475055,,,0x00c000,-35.7,
1664475056,C;S;V;F,16.4,0x00c000,,0.00e-0
1664475057,C;S;V;F,16.2,0x00c000,-36.0,0.00e-0
1664475058,C;S;V;F,16.3,0x00c000,-35.9,0.00e-0
1664475059,C;S;V;F,16.7,0x00c000,-35.6,0.00e-0
1664475060,C;S;V;F,16.3,0x00c000,-35.9,0.00e-0
1664475061,C;S;V;F,16.3,0x00c000,-35.9,0.00e-0
1664475062,C;S;V;F,16.5,0x00c000,-35.7,0.00e-0
1664475063,C;S;V;F,16.6,0x00c000,-35.8,
1664475064,,16.4,0x00c000,-36.0,0.00e-0
1664475065,C;S;V;F,16.5,0x00c000,-35.9,0.00e-0
1664475066,C;S;V;F,16.6,0x00c000,-35.6,0.00e-0
1664475067,C;S;V;F,,0x00c000,-35.7,0.00e-0
1664475068,C;S;V;F,16.4,0x00c000,,0.00e-0
1664475069,C;S;V;F,16.7,0x00c000,-35.6,0.00e-0
1664475071,,16.6,0x00c000,-35.8,
1664475072,C;S;V;F,,0x00c000,-35.9,0.00e-0
1664475073,C;S;V;F,16.4,0x00c000,,0.00e-0
1664475074,C;S;V;F,16.4,0x00c000,-35.9,0.00e-0
1664475075,C;S;V;F,16.4,0x00c000,-35.8,0.00e-0
1664475076,C;S;V;F,16.6,0x00c000,-35.7,0.00e-0
1664475077,C;S;V;F,16.5,0x00c000,-35.6,0.00e-0
1664475078,C;S;V;F,16.5,0x00c000,-35.9,0.00e-0
1664475079,C;S;V;F,16.5,0x00c000,-35.8,0.00e-0
1664475080,C;S;V;F,16.6,0x00c000,-35.8,0.00e-0
1664475084,C;S;V;F,16.5,0x00c000,-35.7,
1664475085,,16.4,0x00c000,-35.8,0.00e-0
1664475086,C;S;V;F,,0x00c000,-35.5,0.00e-0
1664475087,C;S;V;F,16.5,0x00c000,-35.6,0.00e-0
1664475088,C;S;V;F,16.6,0x00c000,,0.00e-0
1664475089,C;S;V;F,16.5,0x00c000,-35.8,0.00e-0
1664475090,C;S;V;F,16.2,0x00c000,-35.8,0.00e-0
1664475091,C;S;V;F,16.3,0x00c000,-35.7,0.00e-0
1664475092,C;S;V;F,16.3,0x00c000,-36.0,0.00e-0
1664475093,C;S;V;F,16.2,0x00c000,-36.1,0.00e-0
1664475094,C;S;V;F,16.2,0x00c000,-36.0,0.00e-0
1664475095,C;S;V;F,16.5,0x00c000,-36.3,0.00e-0
1664475096,C;S;V;F,16.1,0x00c000,-36.3,0.00e-0
1664475097,C;S;V;F,16.1,0x00c000,-36.3,0.00e-0
1664475098,C;S;V;F,16.2,0x00c000,-36.2,
1664475099,,16.1,0x00c000,-36.2,0.00e-0
1664475100,C;S;V;F,16.2,0x00c000,-36.1,0.00e-0
1664475101,C;S;V;F,16.2,0x00c000,-36.1,0.00e-0
1664475102,C;S;V;F,,0x00c000,-35.9,0.00e-0
1664475103,C;S;V;F,16.4,0x00c000,-35.7,0.00e-0
1664475104,C;S;V;F,16.4,0x00c000,,0.00e-0
1664475105,C;S;V;F,16.8,0x00c000,-36.0,0.00e-0
1664475106,C;S;V;F,16.4,0x00c000,-36.3,0.00e-0
1664475107,C;S;V;F,16.5,0x00c000,-36.3,0.00e-0
1664475108,C;S;V;F,16.6,0x00c000,-35.9,0.00e-0
1664475109,C;S;V;F,16.4,0x00c000,-35.8,0.00e-0
1664475110,C;S;V;F,16.4,0x00c000,-36.0,0.00e-0
1664475111,C;S;V;F,16.3,0x00c000,-36.4,0.00e-0
1664475112,C;S;V;F,16.2,0x00c000,-36.1,
1664475113,,16.4,0x00c000,-36.1,0.00e-0
1664475114,C;S;V;F,16.2,0x00c000,-36.3,0.00e-0
1664475115,C;S;V;F,,0x00c000,-36.0,0.00e-0
1664475116,C;S;V;F,16.2,0x00c000,-36.1,0.00e-0
1664475117,C;S;V;F,16.5,0x00c000,,0.00e-0
1664475118,C;S;V;F,16.1,0x00c000,-36.3,0.00e-0
1664475119,C;S;V;F,16.1,0x00c000,-36.5,0.00e-0
1664475120,C;S;V;F,16.0,0x00c000,-36.3,0.00e-0
1664475121,C;S;V;F,16.2,0x00c000,-36.4,0.00e-0
1664475122,C;S;V;F,16.1,0x00c000,-36.4,0.00e-0
1664475123,C;S;V;F,16.2,0x00c000,-36.2,0.00e-0
1664475124,,16.3,0x00c000,-36.1,
1664475125,C;S;V;F,16.2,0x00c000,-36.4,0.00e-0
1664475126,C;S;V;F,16.0,0x00c000,-36.4,0.00e-0
1664475127,C;S;V;F,16.3,0x00c000,-36.3,0.00e-0
1664475128,C;S;V;F,,0x00c000,-36.4,0.00e-0
1664475129,C;S;V;F,16.4,0x00c000,,0.00e-0
1664475130,C;S;V;F,16.4,0x00c000,-36.2,0.00e-0
1664475131,C;S;V;F,16.3,0x00c000,-36.0,0.00e-0
1664475132,C;S;V;F,16.5,0x00c000,-36.0,0.00e-0
1664475134,,16.5,0x00c000,-36.0,
1664475135,C;S;V;F,16.4,0x00c000,-35.9,0.00e-0
1664475136,C;S;V;F,16.6,0x00c000,-35.9,0.00e-0
1664475137,C;S;V;F,,0x00c000,-36.0,0.00e-0
1664475138,C;S;V;F,16.4,0x00c000,-36.2,0.00e-0
1664475139,C;S;V;F,16.2,0x00c000,,0.00e-0
1664475140,C;S;V;F,16.4,0x00c000,-36.2,0.00e-0
1664475141,C;S;V;F,16.3,0x00c000,-36.0,0.00e-0
1664475142,C;S;V;F,16.5,0x00c000,-36.1,0.00e-0
1664475143,C;S;V;F,16.5,0x00c000,-35.9,0.00e-0
1664475144,C;S;V;F,16.6,0x00c000,-35.8,0.00e-0
1664475145,C;S;V;F,16.5,0x00c000,-35.8,0.00e-0
1664475146,C;S;V;F,16.6,0x00c000,-35.9,0.00e-0
1664475147,C;S;V;F,16.8,0x00c000,-36.0,
1664475148,,16.8,0x00c000,-35.7,0.00e-0
1664475149,C;S;V;F,16.6,0x00c000,-35.7,0.00e-0
1664475150,C;S;V;F,16.8,0x00c000,-36.0,0.00e-0
1664475151,C;S;V;F,,0x00c000,-35.9,0.00e-0
1664475152,C;S;V;F,16.7,0x00c000,,0.00e-0
1664475153,C;S;V;F,16.5,0x00c000,-35.9,0.00e-0
1664475154,C;S;V;F,16.7,0x00c000,-36.1,0.00e-0
1664475155,C;S;V;F,16.6,0x00c000,-36.1,0.00e-0
1664475156,C;S;V;F,16.4,0x00c000,-36.1,0.00e-0
1664475157,C;S;V;F,16.6,0x00c000,-35.9,0.00e-0
1664475158,,16.5,0x00c000,-36.2,
1664475159,C;S;V;F,,0x00c000,-36.0,0.00e-0
1664475160,C;S;V;F,16.5,0x00c000,,0.00e-0
1664475161,C;S;V;F,16.5,0x00c000,-35.9,0.00e-0
1664475162,C;S;V;F,16.7,0x00c000,-35.8,0.00e-0
1664475163,C;S;V;F,16.6,0x00c000,-35.8,0.00e-0
1664475164,C;S;V;F,16.6,0x00c000,-36.1,0.00e-0
1664475165,C;S;V;F,16.6,0x00c000,-36.0,0.00e-0
1664475166,C;S;V;F,16.6,0x00c000,-36.1,0.00e-0
1664475167,C;S;V;F,16.4,0x00c000,-36.0,
1664475168,,16.7,0x00c000,-35.9,0.00e-0
1664475169,C;S;V;F,16.5,0x00c000,-36.0,0.00e-0
1664475170,C;S;V;F,,0x00c000,-36.2,0.00e-0
1664475171,C;S;V;F,16.4,0x00c000,-36.2,0.00e-0
1664475172,C;S;V;F,16.2,0x00c000,,0.00e-0
1664475173,C;S;V;F,16.2,0x00c000,-36.4,0.00e-0
1664475174,C;S;V;F,16.3,0x00c000,-36.1,0.00e-0
1664475175,C;S;V;F,16.3,0x00c000,-36.1,0.00e-0
1664475176,C;S;V;F,16.4,0x00c000,-36.1,0.00e-0
1664475177,C;S;V;F,16.3,0x00c000,-36.2,0.00e-0
1664475178,C;S;V;F,16.3,0x00c000,-36.3,0.00e-0
1664475179,C;S;V;F,16.3,0x00c000,-36.3,0.00e-0
1664475180,,16.1,0x00c000,-36.4,
1664475181,C;S;V;F,16.2,0x00c000,-36.6,0.00e-0
1664475182,C;S;V;F,15.9,0x00c000,-36.7,0.00e-0
1664475183,C;S;V;F,15.8,0x00c000,-37.1,0.00e-0
1664475184,C;S;V;F,,0x00c000,-37.1,0.00e-0
1664475185,C;S;V;F,15.4,0x00c000,-37.3,0.00e-0
1664475186,C;S;V;F,15.3,0x00c000,,0.00e-0
1664475187,C;S;V;F,15.3,0x00c000,-37.8,0.00e-0
1664475188,C;S;V;F,15.0,0x00c000,-37.8,0.00e-0
1664475189,C;S;V;F,15.0,0x00c000,-37.7,0.00e-0
1664475190,C;S;V;F,15.1,0x00c000,-38.0,0.00e-0
1664475191,C;S;V;F,14.8,0x00c000,-38.3,0.00e-0
1664475192,C;S;V;F,14.4,0x00c000,-38.4,0.00e-0
1664475193,C;S;V;F,14.2,0x00c000,-38.6,0.00e-0
1664475194,,14.0,0x00c000,-38.8,
1664475195,C;S;V;F,,,,0.00e-0
1664475197,C;S;V;F,13.6,0x00c000,-39.2,0.00e-0
1664475198,C;S;V;F,13.3,0x00c000,-39.5,0.00e-0
1664475199,C;S;V;F,13.0,0x00c000,-39.6,
1664475200,,13.1,0x00c000,-39.9,0.00e-0
1664475201,C;S;V;F,12.5,0x00c000,-40.3,0.00e-0
1664475202,C;S;V;F,,0x00c000,-40.5,1.05e-6
1664475203,C;S;V;F,12.3,0x00c000,,1.81e-6
1664475204,C;S;V;F,12.4,0x00c000,-40.2,1.96e-6
1664475205,C;S;V;F,12.6,0x00c000,-40.0,9.09e-7
1664475206,C;S;V;F,12.7,0x00c000,-39.6,6.06e-7
1664475207,C;S;V;F,13.3,0x00c000,-39.2,0.00e-0
1664475208,C;S;V;F,13.5,0x00c000,-39.1,0.00e-0
1664475209,C;S;V;F,13.5,0x00c000,-39.1,0.00e-0
1664475210,C;S;V;F,13.7,0x00c000,-39.4,0.00e-0
1664475211,C;S;V;F,13.3,0x00c000,-39.5,0.00e-0
1664475212,C;S;V;F,13.2,0x00c000,-39.7,0.00e-0
1664475213,,12.9,0x00c000,-39.7,
1664475214,C;S;V;F,13.1,0x00c000,-39.8,1.51e-7
1664475215,C;S;V;F,13.2,0x00c000,-39.6,3.03e-7
1664475216,C;S;V;F,13.2,0x00c000,-39.4,4.54e-7
1664475217,C;S;V;F,,0x00c000,-39.2,0.00e-0
1664475218,C;S;V;F,13.5,0x00c000,-39.0,0.00e-0
1664475219,C;S;V;F,13.7,0x00c000,,0.00e-0
1664475220,C;S;V;F,13.7,0x00c000,-39.0,0.00e-0
1664475221,C;S;V;F,13.7,0x00c000,-39.0,0.00e-0
1664475222,C;S;V;F,14.0,0x00c000,-39.0,0.00e-0
1664475223,C;S;V;F,14.1,0x00c000,-38.7,0.00e-0
1664475224,C;S;V;F,14.4,0x00c000,-38.3,0.00e-0
1664475225,C;S;V;F,14.9,0x00c000,-37.6,0.00e-0
1664475226,C;S;V;F,15.1,0x00c000,-37.4,0.00e-0
1664475227,,15.1,0x00c000,-37.3,
1664475228,C;S;V;F,14.8,0x00c000,-37.8,0.00e-0
1664475229,C;S;V;F,,0x00c000,-37.5,0.00e-0
1664475230,C;S;V;F,15.0,0x00c000,-37.4,0.00e-0
1664475231,C;S;V;F,15.2,0x00c000,,0.00e-0
1664475232,C;S;V;F,15.0,0x00c000,-37.5,0.00e-0
1664475233,C;S;V;F,15.5,0x00c000,-37.2,0.00e-0
1664475234,C;S;V;F,15.3,0x00c000,-37.2,0.00e-0
1664475235,C;S;V;F,15.4,0x00c000,-37.3,0.00e-0
1664475236,C;S;V;F,15.2,0x00c000,-37.5,0.00e-0
1664475237,C;S;V;F,15.3,0x00c000,-37.4,0.00e-0
1664475238,C;S;V;F,15.5,0x00c000,-36.8,
1664475239,,15.7,0x00c000,-37.1,0.00e-0
1664475240,C;S;V;F,14.7,0x00c000,-38.2,0.00e-0
1664475241,C;S;V;F,14.2,0x00c000,-38.2,0.00e-0
1664475242,C;S;V;F,,0x00c000,-37.8,0.00e-0
1664475243,C;S;V;F,14.8,0x00c000,-37.2,0.00e-0
1664475244,C;S;V;F,15.3,0x00c000,,0.00e-0
1664475245,C;S;V;F,15.3,0x00c000,-37.6,0.00e-0
1664475246,C;S;V;F,14.4,0x00c000,-38.5,0.00e-0
1664475247,C;S;V;F,14.6,0x00c000,-38.2,0.00e-0
1664475248,C;S;V;F,14.6,0x00c000,-37.8,0.00e-0
1664475249,C;S;V;F,14.7,0x00c000,-38.0,0.00e-0
1664475250,C;S;V;F,14.3,0x00c000,-38.2,0.00e-0
1664475251,C;S;V;F,14.7,0x00c000,-37.5,0.00e-0
1664475252,C;S;V;F,15.2,0x00c000,-37.5,
1664475253,,14.2,0x00c000,-38.0,0.00e-0
1664475254,C;S;V;F,13.6,0x00c000,-39.3,0.00e-0
1664475255,C;S;V;F,14.3,0x00c000,-38.2,0.00e-0
1664475256,C;S;V;F,,0x00c000,-36.4,0.00e-0
1664475257,C;S;V;F,15.6,0x00c000,,0.00e-0
1664475259,C;S;V;F,13.8,0x00c000,-38.8,0.00e-0
1664475260,C;S;V;F,14.5,0x00c000,-37.4,0.00e-0
1664475261,C;S;V;F,15.7,0x00c000,-36.7,0.00e-0
1664475262,C;S;V;F,15.4,0x00c000,-37.1,0.00e-0
1664475263,C;S;V;F,15.5,0x00c000,-36.0,
1664475264,,16.2,0x00c000,-35.7,0.00e-0
1664475265,C;S;V;F,15.7,0x00c000,-36.7,0.00e-0
1664475266,C;S;V;F,16.2,0x00c000,-36.3,0.00e-0
1664475267,C;S;V;F,,0x00c000,,0.00e-0
1664475268,C;S;V;F,16.7,0x00c000,-35.3,0.00e-0
1664475269,C;S;V;F,16.6,0x00c000,-36.0,0.00e-0
1664475270,C;S;V;F,16.4,0x00c000,-35.2,0.00e-0
1664475271,C;S;V;F,17.0,0x00c000,-35.6,0.00e-0
1664475272,C;S;V;F,16.3,0x00c000,-36.4,0.00e-0
1664475273,,16.5,0x00c000,-35.2,
1664475274,C;S;V;F,17.1,0x00c000,-35.1,0.00e-0
1664475275,C;S;V;F,16.6,0x00c000,-36.0,0.00e-0
1664475276,C;S;V;F,16.2,0x00c000,-35.0,0.00e-0
1664475277,C;S;V;F,,0x00c000,-36.0,0.00e-0
1664475278,C;S;V;F,16.2,0x00c000,-36.4,0.00e-0
1664475279,C;S;V;F,16.0,0x00c000,,0.00e-0
1664475280,C;S;V;F,16.1,0x00c000,-35.5,0.00e-0
1664475281,C;S;V;F,15.6,0x00c000,-36.6,0.00e-0
1664475282,C;S;V;F,15.8,0x00c000,-36.7,0.00e-0
1664475283,C;S;V;F,16.0,0x00c000,-36.2,0.00e-0
1664475284,C;S;V;F,16.0,0x00c000,-36.7,0.00e-0
1664475285,C;S;V;F,16.4,0x00c000,-36.1,0.00e-0
1664475286,C;S;V;F,16.1,0x00c000,-36.1,0.00e-0
1664475287,C;S;V;F,15.8,0x00c000,-36.6,
1664475288,,16.2,0x00c000,-36.1,0.00e-0
1664475289,C;S;V;F,15.9,0x00c000,-37.0,0.00e-0
1664475290,C;S;V;F,15.9,0x00c000,-36.4,0.00e-0
1664475291,C;S;V;F,,0x00c000,-36.3,0.00e-0
1664475292,C;S;V;F,16.2,0x00c000,-36.8,0.00e-0
1664475293,C;S;V;F,16.2,0x00c000,,0.00e-0
1664475294,C;S;V;F,16.0,0x00c000,-36.4,0.00e-0
1664475295,C;S;V;F,16.3,0x00c000,-36.3,0.00e-0
1664475296,C;S;V;F,16.4,0x00c000,-36.3,0.00e-0
1664475297,C;S;V;F,16.1,0x00c000,-36.4,0.00e-0
1664475298,C;S;V;F,15.9,0x00c000,-37.0,0.00e-0
1664475299,C;S;V;F,15.8,0x00c000,-36.8,0.00e-0
1664475300,C;S;V;F,15.9,0x00c000,-36.8,0.00e-0
1664475301,,15.5,0x00c000,-37.5,
1664475302,C;S;V;F,15.5,0x00c000,-37.2,0.00e-0
1664475303,C;S;V;F,,0x00c000,-37.5,0.00e-0
1664475304,C;S;V;F,15.4,0x00c000,,0.00e-0
1664475305,C;S;V;F,15.2,0x00c000,-37.2,0.00e-0
1664475306,C;S;V;F,16.1,0x00c000,-36.8,0.00e-0
1664475307,C;S;V;F,15.7,0x00c000,-36.9,0.00e-0
1664475308,C;S;V;F,15.7,0x00c000,-37.3,0.00e-0
1664475309,C;S;V;F,15.3,0x00c000,-37.9,0.00e-0
1664475310,C;S;V;F,14.4,0x00c000,-38.8,0.00e-0
1664475311,C;S;V;F,14.3,0x00c000,-38.3,0.00e-0
1664475312,C;S;V;F,14.5,0x00c000,-38.1,0.00e-0
1664475313,C;S;V;F,14.9,0x00c000,-38.1,0.00e-0
1664475314,C;S;V;F,15.5,0x00c000,-37.3,
1664475315,,15.5,0x00c000,-37.5,0.00e-0
1664475316,C;S;V;F,15.3,0x00c000,-37.9,0.00e-0
1664475317,C;S;V;F,,0x00c000,-37.7,0.00e-0
1664475318,C;S;V;F,15.1,0x00c000,,0.00e-0
1664475319,C;S;V;F,15.2,0x00c000,-37.9,0.00e-0
1664475320,C;S;V;F,14.8,0x00c000,-38.0,0.00e-0
1664475323,C;S;V;F,15.3,0x00c000,-37.4,0.00e-0
1664475324,C;S;V;F,15.7,0x00c000,-37.1,0.00e-0
1664475325,C;S;V;F,15.7,0x00c000,-37.2,0.00e-0
1664475326,C;S;V;F,15.5,0x00c000,-37.6,0.00e-0
1664475327,C;S;V;F,15.1,0x00c000,-37.5,0.00e-0
1664475328,C;S;V;F,14.9,0x00c000,-38.0,0.00e-0
1664475329,C;S;V;F,14.5,0x00c000,-38.3,0.00e-0
1664475330,C;S;V;F,14.9,0x00c000,-38.1,
1664475331,,15.2,0x00c000,-37.9,0.00e-0
1664475332,C;S;V;F,15.1,0x00c000,-37.7,0.00e-0
1664475333,C;S;V;F,15.2,0x00c000,-37.9,0.00e-0
1664475334,C;S;V;F,,0x00c000,-38.3,0.00e-0
1664475335,C;S;V;F,14.8,0x00c000,,0.00e-0
1664475336,C;S;V;F,14.4,0x00c000,-38.7,0.00e-0
1664475337,C;S;V;F,13.8,0x00c000,-39.1,0.00e-0
1664475338,C;S;V;F,13.5,0x00c000,-39.3,
1664475339,,14.2,0x00c000,-39.0,0.00e-0
1664475340,C;S;V;F,14.6,0x00c000,-38.1,0.00e-0
1664475341,C;S;V;F,14.8,0x00c000,-38.0,0.00e-0
1664475342,C;S;V;F,14.5,0x00c000,-38.3,0.00e-0
1664475343,C;S;V;F,,0x00c000,-39.1,0.00e-0
1664475344,C;S;V;F,13.8,0x00c000,,0.00e-0
1664475345,C;S;V;F,13.9,0x00c000,-39.0,0.00e-0
1664475346,C;S;V;F,14.1,0x00c000,-38.8,0.00e-0
1664475347,C;S;V;F,14.4,0x00c000,-38.4,0.00e-0
1664475348,C;S;V;F,14.5,0x00c000,-38.2,0.00e-0
1664475349,C;S;V;F,15.2,0x00c000,-37.9,0.00e-0
1664475350,C;S;V;F,14.8,0x00c000,-37.9,0.00e-0
1664475351,C;S;V;F,14.9,0x00c000,-38.0,
1664475352,,15.2,0x00c000,-37.9,0.00e-0
1664475353,C;S;V;F,15.3,0x00c000,-37.6,0.00e-0
1664475354,C;S;V;F,,0x00c000,-37.1,0.00e-0
1664475355,C;S;V;F,15.6,0x00c000,-36.8,0.00e-0
1664475356,C;S;V;F,15.9,0x00c000,,0.00e-0
1664475357,C;S;V;F,16.1,0x00c000,-36.6,0.00e-0
1664475358,C;S;V;F,16.0,0x00c000,-36.7,0.00e-0
1664475359,C;S;V;F,16.2,0x00c000,-36.5,0.00e-0
1664475360,C;S;V;F,16.4,0x00c000,-36.2,0.00e-0
1664475361,C;S;V;F,16.7,0x00c000,-35.8,0.00e-0
1664475362,C;S;V;F,17.1,0x00c000,-35.6,0.00e-0
1664475363,C;S;V;F,17.1,0x00c000,-35.3,0.00e-0
1664475364,,16.9,0x00c000,-35.3,
1664475365,C;S;V;F,17.2,0x00c000,-35.5,0.00e-0
1664475366,C;S;V;F,17.2,0x00c000,-35.4,0.00e-0
1664475367,C;S;V;F,,0x00c000,-34.8,0.00e-0
1664475368,C;S;V;F,17.6,0x00c000,-34.5,0.00e-0
1664475369,C;S;V;F,17.7,0x00c000,,0.00e-0
1664475370,C;S;V;F,17.6,0x00c000,-34.5,0.00e-0
1664475371,C;S;V;F,18.0,0x00c000,-33.9,0.00e-0
1664475372,C;S;V;F,18.1,0x00c000,-33.6,0.00e-0
1664475373,C;S;V;F,18.1,0x00c000,-34.0,0.00e-0
1664475374,C;S;V;F,18.1,0x00c000,-34.1,0.00e-0
1664475375,C;S;V;F,18.0,0x00c000,-34.3,0.00e-0
1664475376,C;S;V;F,18.2,0x00c000,-34.0,0.00e-0
1664475377,,18.1,0x00c000,-33.5,
1664475378,C;S;V;F,18.3,0x00c000,-33.3,0.00e-0
1664475379,C;S;V;F,18.2,0x00c000,-33.5,0.00e-0
1664475380,C;S;V;F,,0x00c000,-33.5,0.00e-0
1664475381,C;S;V;F,18.3,0x00c000,,0.00e-0
1664475382,C;S;V;F,18.3,0x00c000,-33.8,0.00e-0
1664475383,C;S;V;F,18.4,0x00c000,-33.7,0.00e-0
1664475385,,,0x00c000,-33.6,
1664475386,C;S;V;F,18.2,0x00c000,,0.00e-0
1664475389,C;S;V;F,18.0,0x00c000,-34.0,0.00e-0
1664475390,C;S;V;F,18.1,0x00c000,-34.1,0.00e-0
1664475391,C;S;V;F,17.9,0x00c000,-34.3,
1664475392,,18.1,0x00c000,-34.1,0.00e-0
1664475393,C;S;V;F,17.9,0x00c000,-34.6,0.00e-0
1664475394,C;S;V;F,17.8,0x00c000,-34.7,0.00e-0
1664475395,C;S;V;F,17.5,0x00c000,-34.5,0.00e-0
1664475396,C;S;V;F,,0x00c000,-34.8,0.00e-0
1664475397,C;S;V;F,17.9,0x00c000,-35.1,0.00e-0
1664475398,C;S;V;F,17.6,0x00c000,,0.00e-0
1664475399,C;S;V;F,17.5,0x00c000,-35.0,0.00e-0
1664475400,C;S;V;F,17.6,0x00c000,-34.8,0.00e-0
1664475401,C;S;V;F,17.7,0x00c000,-34.8,0.00e-0
1664475402,C;S;V;F,17.5,0x00c000,-35.2,0.00e-0
1664475403,C;S;V;F,17.3,0x00c000,-34.8,0.00e-0
1664475404,C;S;V;F,17.4,0x00c000,-35.1,0.00e-0
1664475405,C;S;V;F,17.2,0x00c000,-34.8,
1664475406,,17.1,0x00c000,-35.2,0.00e-0
1664475407,C;S;V;F,17.1,0x00c000,-35.2,0.00e-0
1664475408,C;S;V;F,17.1,0x00c000,-35.2,0.00e-0
1664475409,C;S;V;F,,0x00c000,-35.7,0.00e-0
1664475410,C;S;V;F,16.9,0x00c000,-36.1,0.00e-0
1664475411,C;S;V;F,16.6,0x00c000,,0.00e-0
1664475412,C;S;V;F,16.6,0x00c000,-36.2,0.00e-0
1664475413,C;S;V;F,16.6,0x00c000,-36.3,0.00e-0
1664475414,C;S;V;F,16.5,0x00c000,-36.3,0.00e-0
1664475415,C;S;V;F,16.4,0x00c000,-36.3,0.00e-0
1664475416,C;S;V;F,16.3,0x00c000,-36.8,0.00e-0
1664475417,C;S;V;F,15.8,0x00c000,-37.1,0.00e-0
1664475418,C;S;V;F,15.7,0x00c000,-37.3,0.00e-0
1664475419,C;S;V;F,15.5,0x00c000,-37.2,0.00e-0
1664475420,,15.6,0x00c000,-37.5,
1664475421,C;S;V;F,15.4,0x00c000,-37.9,0.00e-0
1664475422,C;S;V;F,15.0,0x00c000,-37.9,0.00e-0
1664475423,C;S;V;F,15.0,0x00c000,-38.2,0.00e-0
1664475424,C;S;V;F,,0x00c000,-38.3,0.00e-0
1664475425,C;S;V;F,14.8,0x00c000,,0.00e-0
1664475426,C;S;V;F,14.6,0x00c000,-38.4,0.00e-0
1664475427,C;S;V;F,14.2,0x00c000,-38.7,0.00e-0
1664475428,C;S;V;F,14.0,0x00c000,-39.0,0.00e-0
1664475429,C;S;V;F,14.0,0x00c000,-39.1,0.00e-0
1664475430,C;S;V;F,13.4,0x00c000,-39.6,0.00e-0
1664475431,C;S;V;F,13.5,0x00c000,-39.6,0.00e-0
1664475432,C;S;V;F,13.2,0x00c000,-39.2,
1664475433,,13.8,0x00c000,-39.2,0.00e-0
1664475434,C;S;V;F,13.8,0x00c000,-39.5,0.00e-0
1664475435,C;S;V;F,13.5,0x00c000,-39.6,0.00e-0
1664475436,C;S;V;F,,0x00c000,-39.5,0.00e-0
1664475437,C;S;V;F,13.3,0x00c000,,0.00e-0
1664475438,C;S;V;F,13.1,0x00c000,-39.6,1.51e-7
1664475439,C;S;V;F,13.1,0x00c000,-39.6,1.51e-7
1664475440,C;S;V;F,13.3,0x00c000,-39.6,0.00e-0
1664475441,C;S;V;F,14.0,0x00c000,-38.9,0.00e-0
1664475442,C;S;V;F,14.1,0x00c000,-38.7,0.00e-0
1664475443,C;S;V;F,14.4,0x00c000,-38.6,0.00e-0
1664475444,C;S;V;F,14.1,0x00c000,-38.8,0.00e-0
1664475445,C;S;V;F,14.4,0x00c000,-38.4,
1664475446,,,,,0.00e-0
1664475447,,14.6,0x00c000,-38.3,
1664475448,C;S;V;F,14.6,0x00c000,-38.0,0.00e-0
1664475449,C;S;V;F,14.9,0x00c000,-37.9,0.00e-0
1664475450,C;S;V;F,,0x00c000,-38.0,0.00e-0
1664475451,C;S;V;F,15.0,0x00c000,-37.9,0.00e-0
1664475452,C;S;V;F,15.0,0x00c000,,0.00e-0
1664475453,C;S;V;F,14.7,0x00c000,-38.0,0.00e-0
1664475454,C;S;V;F,15.0,0x00c000,-37.9,0.00e-0
1664475455,C;S;V;F,14.9,0x00c000,-37.8,0.00e-0
1664475456,C;S;V;F,15.0,0x00c000,-37.9,0.00e-0
1664475457,C;S;V;F,15.0,0x00c000,-38.0,0.00e-0
1664475458,C;S;V;F,14.5,0x00c000,-38.4,0.00e-0
1664475459,C;S;V;F,14.5,0x00c000,-38.3,
1664475460,,14.9,0x00c000,-38.1,0.00e-0
1664475461,C;S;V;F,14.9,0x00c000,-37.8,0.00e-0
1664475462,C;S;V;F,,0x00c000,-37.5,0.00e-0
1664475463,C;S;V;F,15.4,0x00c000,,0.00e-0
1664475464,C;S;V;F,15.6,0x00c000,-37.2,0.00e-0
1664475465,C;S;V;F,15.5,0x00c000,-37.2,0.00e-0
1664475466,C;S;V;F,15.5,0x00c000,-37.0,0.00e-0
1664475467,C;S;V;F,15.5,0x00c000,-37.3,0.00e-0
1664475468,C;S;V;F,15.2,0x00c000,-37.5,0.00e-0
1664475469,C;S;V;F,15.0,0x00c000,-37.9,0.00e-0
1664475470,,15.0,0x00c000,-37.6,
1664475471,C;S;V;F,15.3,0x00c000,-37.6,0.00e-0
1664475472,C;S;V;F,15.1,0x00c000,-37.6,0.00e-0
1664475473,C;S;V;F,,0x00c000,-37.6,0.00e-0
1664475474,C;S;V;F,15.4,0x00c000,,0.00e-0
1664475475,C;S;V;F,15.5,0x00c000,-37.2,0.00e-0
1664475476,C;S;V;F,15.5,0x00c000,-37.4,0.00e-0
1664475477,C;S;V;F,15.7,0x00c000,-37.0,0.00e-0
1664475478,C;S;V;F,15.7,0x00c000,-37.1,0.00e-0
1664475479,C;S;V;F,15.6,0x00c000,-37.0,0.00e-0
1664475480,C;S;V;F,15.5,0x00c000,-37.0,0.00e-0
1664475481,C;S;V;F,15.9,0x00c000,-37.0,0.00e-0
1664475482,,15.7,0x00c000,-36.8,
1664475483,C;S;V;F,15.6,0x00c000,-36.8,0.00e-0
1664475484,C;S;V;F,15.9,0x00c000,-36.9,0.00e-0
1664475485,C;S;V;F,,0x00c000,-36.9,0.00e-0
1664475486,C;S;V;F,15.7,0x00c000,-37.2,0.00e-0
1664475487,C;S;V;F,15.5,0x00c000,,0.00e-0
1664475488,C;S;V;F,15.6,0x00c000,-37.2,0.00e-0
1664475489,C;S;V;F,15.4,0x00c000,-37.3,0.00e-0
1664475490,C;S;V;F,15.6,0x00c000,-37.3,0.00e-0
1664475491,C;S;V;F,15.5,0x00c000,-37.2,0.00e-0
1664475492,C;S;V;F,15.7,0x00c000,-37.0,0.00e-0
1664475493,C;S;V;F,15.8,0x00c000,-37.0,0.00e-0
1664475494,C;S;V;F,15.7,0x00c000,-37.1,0.00e-0
1664475495,C;S;V;F,15.8,0x00c000,-36.9,
1664475496,,15.8,0x00c000,-36.9,0.00e-0
1664475497,C;S;V;F,15.7,0x00c000,-36.8,0.00e-0
1664475498,C;S;V;F,15.9,0x00c000,-36.4,0.00e-0
1664475499,C;S;V;F,16.3,0x00c000,-36.4,0.00e-0
1664475500,C;S;V;F,,0x00c000,-36.4,0.00e-0
1664475501,C;S;V;F,16.2,0x00c000,,0.00e-0
1664475502,C;S;V;F,15.9,0x00c000,-36.5,0.00e-0
1664475503,C;S;V;F,15.9,0x00c000,-36.4,0.00e-0
1664475504,C;S;V;F,15.9,0x00c000,-36.7,0.00e-0
1664475505,C;S;V;F,16.0,0x00c000,-36.7,0.00e-0
1664475506,C;S;V;F,15.8,0x00c000,-36.7,0.00e-0
1664475507,C;S;V;F,15.9,0x00c000,-36.6,0.00e-0
1664475508,C;S;V;F,15.9,0x00c000,-36.5,0.00e-0
1664475511,C;S;V;F,16.2,0x00c000,-36.4,0.00e-0
1664475512,C;S;V;F,16.3,0x00c000,-36.4,0.00e-0
1664475513,,16.2,0x00c000,-36.4,
1664475514,C;S;V;F,16.1,0x00c000,-36.5,0.00e-0
1664475515,C;S;V;F,16.0,0x00c000,-36.6,0.00e-0